Butte, MT
on Saturday, October 7, 2017

Saturday
Previous Day Next Day
Daily Summary
 ActualAverageRecord
Temperature
Mean Temperature - 44 °F  
Max Temperature 56 °F 59 °F 79 °F (1980)
Min Temperature 35 °F 29 °F 10 °F (1990)
Degree Days
Heating Degree Days 19 21  
Month to date heating degree days 189 140  
Since 1 July heating degree days 670 761  
Cooling Degree Days 0 0  
Month to date cooling degree days 0 0  
Year to date cooling degree days 129 81  
Moisture
Dew Point 26 °F   
Average Humidity 54    
Maximum Humidity 79    
Minimum Humidity 28    
Precipitation
Precipitation T in 0.02 in 1.01 in (1975)
Month to date precipitation 0.08 0.20  
Year to date precipitation 10.61 11.08  
Wind
Wind Speed 12 mph   
Max Wind Speed 28 mph   
Max Gust Speed 38 mph   
Visibility 10 miles   
Events     

Key: T is trace of precipitation, MM is missing value
Source: NWS Daily Summary
Time(MDT)TemperatureDew PointHumidity Pressure Visibility Wind DirectionWind SpeedGust SpeedPrecipitationEvents Conditions
12:53 AM 53.1 °F 26.1 °F 35% 29.75 in 10.0 miles WSW 9.2 mph - N/A   Scattered Clouds
1:53 AM 53.1 °F 25.0 °F 34% 29.72 in 10.0 miles West 9.2 mph - N/A   Overcast
2:53 AM 53.1 °F 24.1 °F 32% 29.69 in 10.0 miles Variable 6.9 mph - N/A   Overcast
3:53 AM 54.0 °F 23.0 °F 30% 29.66 in 10.0 miles WSW 11.5 mph 25.3 mph N/A   Mostly Cloudy
4:53 AM 53.1 °F 21.9 °F 30% 29.65 in 10.0 miles West 6.9 mph 17.3 mph N/A   Clear
5:53 AM 52.0 °F 21.9 °F 31% 29.65 in 10.0 miles West 12.7 mph 18.4 mph N/A   Clear
6:53 AM 52.0 °F 23.0 °F 32% 29.63 in 10.0 miles West 12.7 mph 21.9 mph N/A   Clear
7:53 AM 50.0 °F 24.1 °F 36% 29.64 in 10.0 miles West 5.8 mph - N/A   Partly Cloudy
8:53 AM 53.1 °F 25.0 °F 34% 29.63 in 10.0 miles West 9.2 mph 17.3 mph N/A   Overcast
9:53 AM 52.0 °F 26.1 °F 37% 29.62 in 10.0 miles WSW 5.8 mph - N/A   Overcast
10:53 AM 54.0 °F 26.1 °F 34% 29.61 in 10.0 miles West 23.0 mph 35.7 mph N/A   Mostly Cloudy
11:53 AM 55.0 °F 25.0 °F 31% 29.60 in 10.0 miles West 18.4 mph 31.1 mph N/A   Mostly Cloudy
12:53 PM 54.0 °F 26.1 °F 34% 29.62 in 10.0 miles West 24.2 mph 34.5 mph N/A   Mostly Cloudy
1:53 PM 53.1 °F 26.1 °F 35% 29.62 in 10.0 miles West 16.1 mph 28.8 mph N/A   Mostly Cloudy
2:53 PM 54.0 °F 27.0 °F 35% 29.61 in 10.0 miles West 20.7 mph 34.5 mph N/A   Mostly Cloudy
3:53 PM 51.1 °F 27.0 °F 39% 29.65 in 10.0 miles West 20.7 mph 32.2 mph N/A   Mostly Cloudy
4:37 PM 46.0 °F 30.9 °F 56% 29.75 in 10.0 miles NW 20.7 mph 31.1 mph N/A   Overcast
4:53 PM 46.0 °F 32.0 °F 58% 29.68 in 10.0 miles NW 17.3 mph - N/A   Overcast
5:53 PM 43.0 °F 34.0 °F 71% 29.73 in 10.0 miles NW 15.0 mph - 0.00 in   Overcast
6:53 PM 39.9 °F 33.1 °F 77% 29.75 in 10.0 miles WNW 4.6 mph - 0.00 in   Mostly Cloudy
7:53 PM 39.9 °F 30.9 °F 70% 29.77 in 10.0 miles NW 8.1 mph - N/A   Overcast
8:53 PM 39.9 °F 28.9 °F 65% 29.76 in 10.0 miles NW 11.5 mph - 0.00 in   Overcast
9:53 PM 39.0 °F 25.0 °F 57% 29.78 in 10.0 miles NW 11.5 mph 23.0 mph N/A   Overcast
10:53 PM 37.0 °F 24.1 °F 59% 29.79 in 10.0 miles WNW 9.2 mph - N/A   Partly Cloudy
11:53 PM 36.0 °F 23.0 °F 59% 29.80 in 10.0 miles West 4.6 mph - N/A   Partly Cloudy

Astronomy

Sunrise: 07:36 AM (MDT) Moon Rise: 08:33 PM (MDT) 10 / 7
Sunset: 06:57 PM (MDT) Moon Set: 09:38 AM (MDT) 10 / 7
Moon Phase
Oct. 07 Oct. 12 Oct. 19 Oct. 27 Nov. 04

Powered by the Weather Underground, Inc.